Theta_e
303 299 297 300 302 304 300 300 299 299 296 296 298 298 301 303 300 305 309 313 316 318 322 326 328 330 331 332 331 327 325 327 328 329 329 329 329 331 332 332 331 329 328 328
297 296 304 306 305 301 301 299 300 303 299 297 298 296 300 302 300 301 305 310 313 317 319 322 325 328 329 331 331 331 328 328 329 331 331 331 331 332 332 333 331 331 331 330
297 300 303 303 300 299 297 297 299 299 294 295 296 298 302 304 299 300 301 306 312 315 316 319 322 324 327 329 330 331 331 331 331 331 332 332 332 331 330 329 331 331 332 331
298 301 301 300 300 301 293 298 299 298 294 292 298 290 301 305 304 298 299 300 304 312 317 319 320 322 324 326 330 331 332 332 332 332 331 330 328 327 329 330 331 327 328 329
295 295 297 299 298 302 295 297 295 292 293 287 292 286 297 298 297 299 300 301 301 305 312 316 317 320 323 326 327 329 331 331 332 332 332 332 330 331 332 327 322 319 318 320
295 298 300 299 298 301 298 293 292 290 289 284 291 288 294 298 298 302 302 301 302 302 303 309 315 318 318 320 323 326 327 329 331 332 331 331 331 331 328 323 321 315 313 311
292 293 295 298 294 296 294 292 283 282 282 286 288 288 294 301 299 302 303 303 303 303 302 302 303 307 312 313 314 320 323 324 328 330 330 331 331 331 328 324 323 316 311 305
287 284 291 295 297 291 292 293 285 281 281 287 283 285 293 297 297 301 299 301 301 302 302 302 301 303 305 309 312 313 314 319 325 327 328 329 331 331 329 327 321 316 310 305
288 287 294 292 295 296 290 288 294 285 279 282 287 290 294 296 296 296 297 298 299 300 300 300 301 301 303 305 308 311 309 312 319 324 325 325 326 327 325 323 318 313 306 299
294 285 292 293 295 294 295 296 286 287 281 280 287 286 289 293 294 297 297 299 301 301 299 299 299 300 302 305 307 309 309 309 311 320 323 323 324 325 322 318 312 305 301 296
295 290 285 290 289 289 291 290 290 290 287 283 282 288 295 295 296 295 296 297 298 299 301 301 301 301 302 304 306 307 306 307 308 310 319 320 317 315 311 308 304 301 299 295
292 289 285 287 291 293 294 291 291 287 283 286 283 287 294 294 294 293 296 296 298 299 300 301 300 301 301 302 304 304 305 305 307 309 312 314 310 303 303 300 298 296 294 294
292 288 282 282 287 290 290 291 293 292 289 286 285 289 300 295 294 295 296 297 299 299 300 300 300 300 300 301 301 302 303 304 304 305 307 305 303 302 302 296 293 293 291 291
295 288 288 284 286 288 286 290 291 291 285 288 288 292 295 293 295 297 297 297 298 300 300 300 300 299 300 300 301 300 300 301 301 302 302 302 300 300 296 296 290 290 289 289
294 286 287 288 289 290 289 289 290 289 291 287 291 290 295 298 299 300 301 300 297 298 299 299 299 300 299 298 298 299 300 299 299 299 299 298 296 295 292 289 290 288 289 287
291 287 288 283 287 288 287 290 290 290 291 291 292 291 298 299 300 299 300 300 297 297 298 300 299 299 297 297 298 298 298 296 296 297 296 294 290 289 289 288 286 286 285 286
289 286 286 283 284 285 283 287 290 291 293 292 288 293 296 296 296 297 298 299 299 300 299 299 300 300 299 298 298 297 297 295 294 294 291 289 289 288 286 285 284 284 284 284
289 286 287 280 281 278 288 293 293 291 292 295 294 295 296 297 298 299 300 299 298 299 298 299 300 300 300 300 298 297 295 292 291 290 289 288 287 287 285 283 283 283 283 283
293 289 281 282 282 286 287 287 288 288 289 294 293 295 297 297 295 296 299 298 298 299 298 300 301 301 301 299 298 295 291 291 289 288 288 287 287 286 284 283 282 282 282 283
289 293 289 279 281 278 287 291 292 292 284 294 294 294 294 293 288 293 295 295 296 296 297 298 300 299 299 298 297 291 290 289 289 289 287 287 287 286 284 284 283 283 284 283
284 286 283 283 283 286 289 289 293 284 287 289 292 292 291 290 294 294 294 294 294 293 293 296 298 298 298 296 293 291 290 289 291 288 287 285 285 285 285 284 283 283 282 281
284 283 283 284 282 279 291 289 289 292 291 293 292 292 291 292 291 292 291 291 291 290 291 291 294 295 297 293 291 290 289 290 288 287 285 285 285 284 284 283 282 282 281 281
284 289 286 287 287 291 291 293 291 292 292 291 293 291 292 292 290 290 289 289 288 287 287 287 288 289 289 289 290 289 289 287 286 285 285 284 284 284 284 283 281 281 281 281
286 288 289 288 289 289 290 288 290 290 290 290 291 290 291 289 289 288 288 287 286 284 283 284 286 286 286 285 286 287 287 286 285 285 284 284 283 283 283 283 282 282 280 280
288 287 285 285 285 287 288 289 289 288 289 289 288 288 288 289 287 287 285 284 283 283 282 283 283 283 283 283 285 285 285 285 285 285 283 283 283 282 281 282 281 281 282 282
286 287 288 288 290 291 290 289 289 288 287 288 287 286 284 286 285 284 282 281 281 281 281 281 281 281 280 281 281 282 283 284 284 283 281 282 282 280 280 280 279 282 282 282
Wind_Speed
6 4 13 19 15 6 11 13 14 7 2 5 15 16 15 9 7 12 13 14 15 17 16 17 17 16 16 15 15 16 15 15 11 9 9 8 9 8 7 5 8 8 7 8
6 13 14 14 17 9 11 12 12 6 5 5 9 16 13 12 10 13 14 15 17 15 16 17 17 17 17 17 17 17 17 17 14 11 10 8 9 8 9 7 8 9 10 8
12 9 12 14 11 13 5 10 10 7 3 4 9 24 22 18 11 11 12 14 14 18 19 17 19 20 18 19 18 17 18 17 15 16 10 8 5 2 5 5 7 7 10 8
6 10 17 13 18 14 7 4 3 6 3 9 2 10 17 15 23 14 16 15 16 18 18 17 19 19 20 19 18 18 18 18 16 17 13 17 11 10 9 9 7 6 4 6
6 13 14 20 10 12 3 10 5 4 3 5 8 7 12 3 16 21 17 17 17 18 19 20 18 18 19 17 17 17 18 18 18 17 17 14 15 11 8 4 9 7 5 4
5 1 11 7 10 13 19 14 14 9 3 7 10 10 10 16 20 17 14 18 19 20 18 19 16 14 13 13 15 16 20 20 19 17 19 19 17 14 10 9 9 7 6 5
6 8 2 9 14 13 7 13 3 3 5 8 3 12 17 14 10 12 16 18 19 19 17 16 17 16 16 17 16 15 19 20 19 18 18 19 19 17 17 15 12 12 8 4
11 8 11 7 9 10 9 4 5 6 6 2 1 12 6 8 9 11 10 13 9 11 13 14 16 15 14 14 15 16 18 18 19 19 19 17 18 12 13 14 11 10 9 8
13 6 7 2 6 18 5 6 2 3 3 2 6 8 12 13 12 9 14 12 12 12 10 13 10 12 12 12 15 16 15 16 17 18 15 14 12 15 12 14 12 10 10 8
12 8 9 6 5 3 12 15 5 2 6 7 9 8 10 5 11 13 11 13 14 6 6 8 10 11 11 12 13 15 14 16 14 15 13 10 11 12 10 12 13 12 10 11
13 5 5 4 9 16 11 10 3 3 4 5 5 8 6 9 8 5 4 6 5 6 8 8 9 10 11 12 14 13 12 13 13 12 13 9 7 8 10 10 11 11 14 11
5 7 7 10 1 6 15 13 10 7 7 5 2 12 4 5 2 0 5 4 4 5 6 6 6 7 9 10 11 12 11 12 11 10 12 11 9 7 7 8 10 11 11 12
12 7 9 4 2 1 15 10 16 6 2 9 7 13 10 8 4 2 2 2 4 6 5 6 6 6 8 10 9 10 10 10 8 8 9 9 8 10 11 10 9 11 13 11
8 5 10 13 7 12 12 22 20 14 6 13 17 30 9 5 5 5 6 4 6 9 8 6 6 8 8 9 11 10 8 7 8 9 9 10 10 11 10 12 11 12 12 13
9 7 8 5 9 12 14 19 22 24 30 16 26 25 22 17 17 18 18 7 10 13 10 8 8 8 10 11 10 10 10 11 11 11 11 11 9 9 10 10 10 9 11 9
3 4 7 3 4 7 5 19 28 31 26 24 22 25 14 11 12 16 18 15 12 15 13 10 10 10 12 12 12 10 10 11 11 12 10 10 9 9 10 11 12 10 9 10
12 7 4 6 3 6 7 24 24 25 24 29 21 31 5 3 15 14 16 16 16 17 14 9 11 10 11 11 10 12 10 8 10 8 7 9 10 10 10 10 10 11 10 10
13 7 2 5 4 10 4 6 24 27 23 26 21 17 9 13 13 15 17 14 15 15 13 7 8 9 8 10 11 11 10 10 8 9 9 10 11 11 11 11 10 10 8 9
9 6 5 7 8 6 4 3 10 14 20 20 24 22 22 17 7 25 13 13 15 13 9 9 5 5 8 11 11 9 9 10 10 10 11 11 11 12 12 13 12 10 10 9
3 10 6 4 8 12 3 10 10 7 11 12 22 20 18 6 8 12 4 4 5 6 7 8 7 4 4 6 10 10 10 11 14 13 11 10 11 12 13 13 13 9 9 9
6 4 16 8 8 6 4 4 6 11 3 2 3 5 7 8 6 4 4 5 5 5 8 9 6 4 4 5 7 8 8 12 8 7 8 10 10 11 12 12 10 10 10 9
13 12 9 6 10 18 8 7 15 4 2 3 3 2 3 3 1 3 6 7 9 11 11 11 8 6 3 4 5 5 8 5 5 7 8 10 10 9 8 11 9 9 10 10
8 9 9 14 9 2 10 2 4 4 5 3 4 4 5 6 3 3 4 7 9 9 9 8 7 5 5 2 2 4 2 6 7 7 8 8 8 8 9 11 10 9 9 9
5 4 5 5 5 6 11 3 4 4 5 5 4 4 2 6 6 6 4 5 6 6 7 5 5 7 6 5 4 2 2 4 6 7 8 8 8 7 7 7 8 9 10 9
3 10 6 2 2 5 2 4 8 8 9 9 7 4 5 5 6 6 6 6 6 5 5 5 6 6 6 5 3 3 0 4 4 4 5 7 7 9 8 8 8 8 9 11
6 7 9 7 11 4 5 10 7 9 8 8 9 7 7 7 8 6 7 6 6 7 7 8 8 7 7 6 5 4 2 1 4 4 4 5 5 6 6 7 6 12 10 15
Wind_Direction
164 180 191 186 192 217 178 210 210 186 117 228 239 246 247 245 217 226 236 227 220 212 208 203 205 204 198 201 193 196 195 199 191 190 190 200 203 203 207 207 202 192 198 203
141 219 190 190 195 181 189 207 216 226 217 264 262 265 253 250 237 231 235 234 227 220 210 203 204 206 205 203 206 199 201 196 197 194 195 202 204 212 206 200 200 201 205 202
185 174 154 166 180 190 197 202 216 237 153 251 279 274 256 249 243 236 223 233 238 222 218 206 202 206 207 210 207 210 207 203 199 200 196 202 196 215 197 193 206 204 210 202
192 159 168 171 198 185 175 195 209 214 210 253 288 283 264 251 238 220 227 214 222 230 226 215 210 207 207 212 212 212 211 208 204 202 197 197 201 197 207 199 197 183 185 197
142 161 173 183 175 184 146 137 116 43 124 26 220 269 264 280 235 228 222 218 216 221 228 221 210 207 206 204 207 209 213 213 206 204 203 204 207 213 208 176 157 160 158 169
104 59 167 165 148 167 127 77 59 47 54 247 207 220 234 248 240 239 220 217 220 212 214 228 228 214 209 201 203 203 209 215 211 210 209 210 212 211 189 179 178 170 165 156
135 163 155 157 117 151 104 127 113 174 203 249 59 224 254 257 271 258 242 231 218 216 214 210 211 215 213 201 202 205 210 215 210 211 216 216 215 209 205 188 181 171 170 178
162 181 184 169 181 162 152 135 175 198 196 257 117 236 244 262 307 272 281 269 267 235 217 213 208 216 225 215 202 199 206 214 209 208 214 217 218 214 209 202 177 178 176 164
162 152 167 142 139 146 164 188 151 122 61 249 223 266 259 251 261 231 239 259 266 242 229 232 226 214 219 219 215 206 203 212 213 213 213 211 214 213 200 196 186 172 154 147
159 119 189 138 126 40 178 152 136 224 209 240 233 264 254 303 244 247 241 242 255 273 260 247 240 224 207 210 210 209 203 206 208 210 211 209 207 201 186 180 176 168 153 151
144 111 143 158 208 170 148 176 132 155 222 235 280 260 207 242 282 300 326 293 310 302 280 270 258 248 217 201 202 199 195 199 199 200 205 200 185 180 167 170 164 163 155 155
135 104 137 181 17 276 201 188 174 183 182 246 350 261 164 227 205 214 325 0 323 306 303 286 271 262 252 224 203 194 187 193 203 201 202 199 173 153 157 156 159 151 159 158
162 131 116 148 257 209 216 207 208 215 48 204 193 259 207 196 221 155 264 332 318 304 296 295 285 255 244 243 198 191 199 200 190 189 192 182 172 174 175 162 160 157 145 166
127 155 183 189 178 137 197 204 201 197 195 218 224 256 225 223 220 258 284 288 288 295 296 293 290 266 235 225 223 185 188 197 189 184 186 189 182 182 168 171 159 159 149 162
170 162 173 171 155 171 183 190 189 205 223 209 235 241 250 259 277 290 300 271 274 274 277 273 253 240 233 223 213 219 190 184 184 186 188 189 174 167 155 148 152 153 152 161
199 134 147 116 147 173 168 196 197 209 218 235 250 268 275 261 255 261 264 280 268 261 270 263 242 226 226 218 214 211 204 186 185 188 187 168 158 151 160 155 155 151 151 153
168 134 135 163 102 114 284 212 199 216 211 222 223 239 274 271 235 245 256 261 268 277 277 243 256 240 222 218 209 208 206 184 187 183 165 164 164 165 161 156 155 154 159 149
157 137 95 110 131 215 288 205 196 207 214 220 243 248 237 247 245 250 249 263 266 267 271 253 234 246 220 204 199 194 180 183 185 178 172 170 170 168 155 153 160 154 160 160
162 140 116 148 208 295 263 165 168 186 238 224 237 251 251 250 290 270 262 244 261 289 292 285 293 250 213 195 189 176 167 175 183 194 187 182 175 167 166 168 166 164 158 161
173 192 170 142 209 227 139 184 173 171 265 199 215 233 242 189 252 271 45 37 29 19 0 335 330 300 224 196 180 170 186 188 202 190 189 178 179 173 175 174 168 168 169 166
142 171 212 203 226 267 227 177 165 187 245 135 153 246 166 196 230 52 358 21 5 352 3 355 351 306 273 183 167 190 190 209 207 174 167 171 180 182 179 171 167 164 161 156
162 180 195 197 225 242 166 168 188 166 67 131 125 115 172 250 38 12 25 16 18 16 13 10 359 345 330 146 161 187 209 195 155 163 169 179 176 172 171 168 160 161 160 162
195 189 179 194 205 112 177 160 125 129 130 165 137 165 145 123 95 45 33 27 25 22 24 8 9 2 7 12 169 200 240 156 156 165 169 174 176 176 176 172 169 166 170 171
213 175 189 145 201 172 179 123 135 144 133 136 119 108 115 129 128 113 82 57 45 17 23 353 25 30 14 5 1 302 184 158 166 178 169 165 175 181 185 184 183 182 182 181
131 148 149 112 90 100 194 206 158 130 123 120 95 89 92 108 71 59 60 44 38 21 25 14 30 23 20 355 6 346 199 152 168 162 163 174 182 184 185 199 194 201 205 197
188 161 186 207 175 148 160 161 146 136 133 128 124 97 63 72 91 84 62 46 28 26 19 26 21 17 6 359 357 358 351 148 147 156 170 190 186 190 197 198 200 220 216 207